Location: La Balantina
(44.9000°N, 10.9833°E)
Time: 21:44:54
(UTC+00:00)

Daily predictions for brighter satellites

Satellite Brightness Start Highest point End
(mag) Time Altitude Azimuth Time Altitude Azimuth Time Altitude Azimuth
NOSS 3-3 (C) 3.8 17:40:57 10° SSW 17:46:09 63° ESE 17:52:15 10° NE
YAOGAN 1 2.5 17:42:33 10° SSE 17:46:48 70° ENE 17:51:04 10° N
Nadezhda 4 Rocket 4.5 17:41:42 10° N 17:47:38 41° ENE 17:53:33 10° SE
Cosmos 1674 3.2 17:45:14 10° NNW 17:48:28 53° W 17:51:40 10° S
NOAA 6 4.2 17:43:35 10° SSE 17:48:42 83° WSW 17:53:52 10° NNW
Cosmos 2237 Rocket 2.2 17:43:12 10° SSW 17:48:50 88° ESE 17:54:29 10° NNE
CZ-4B R/B 3.9 17:44:41 10° SE 17:49:03 37° ENE 17:53:33 10° N
Cosmos 1766 Rocket 3.8 17:45:14 10° SSW 17:49:35 76° W 17:54:02 10° N
Cosmos 1570 Rocket 4.0 17:44:30 10° S 17:49:43 70° ESE 17:54:57 10° NNE
Cosmos 1891 Rocket 4.5 17:45:20 10° S 17:51:25 72° E 17:57:40 10° NNE
Cosmos 1125 Rocket 3.5 17:47:14 10° NNW 17:52:27 77° ENE 17:57:40 10° SSE
Meteor 2-10 4.4 17:47:03 10° SSE 17:52:28 50° E 17:57:59 10° NNE
USA 186 3.8 17:52:21 10° E 17:53:56 13° ENE 17:55:30 10° NE
In-Cosmos 22 4.3 17:48:33 10° N 17:54:03 52° ENE 17:59:23 10° SSE
USA 267 4.3 17:47:58 10° NE 17:54:06 44° NNW 18:00:14 10° W
SJ-6B 3.4 17:51:09 10° SE 17:54:19 30° ENE 17:57:30 10° N
Okean 3 Rocket 3.6 17:50:23 10° S 17:54:46 64° E 17:59:08 10° NNE
BREEZE-M DEB (TANK) 4.3 17:53:56 10° S 17:55:54 20° SE 17:58:49 10° E
Cosmos 1943 Rocket 2.2 17:50:34 10° NNW 17:56:07 87° WSW 18:01:40 10° SSE
NOSS 3-3 (A) 3.7 17:50:56 10° SSW 17:56:12 79° SE 18:02:25 10° NE
KORONAS-FOTON 4.0 17:53:04 10° NNW 17:56:45 72° W 18:00:23 10° S
Cosmos 1408 Rocket 4.0 17:52:48 10° SSE 17:56:52 38° E 18:00:59 10° NNE
Cosmos 2150 Rocket 4.4 17:52:06 10° N 17:57:01 44° ENE 18:01:55 10° SE
Iridium 4 Rocket 3.3 17:53:01 10° N 17:57:11 72° W 18:01:31 10° S
SL-08 R/B 3.7 17:54:53 10° NNE 17:59:35 43° E 18:04:13 10° S
Cosmos 2298 Rocket 4.3 17:55:00 10° N 18:00:08 47° ENE 18:05:14 10° SE
Cosmos 158 Rocket 3.8 17:56:08 10° SSW 18:00:59 78° ESE 18:05:52 10° NNE
SeaSat 1 2.4 17:57:40 10° NNE 18:02:37 84° ESE 18:07:32 10° SSW
Cosmos 1513 Rocket 4.4 17:57:00 10° S 18:03:03 80° E 18:09:13 10° N
Helios 1A 3.6 17:59:39 10° NNE 18:03:20 32° E 18:06:59 10° SSE
Sich 1 3.7 18:00:17 10° SSE 18:04:04 32° E 18:07:56 10° NNE
Okean O Rocket 3.4 18:03:42 11° E 18:05:39 15° ENE 18:08:03 10° NNE
Tiangong -0.8 18:04:41 10° SW 18:07:17 24° SSE 18:09:05 15° ESE
COSMO-SKYMED 1 4.2 18:04:10 10° N 18:08:12 39° WNW 18:12:14 10° SW
Cosmos 1607 4.1 18:02:54 10° SSW 18:09:11 58° ESE 18:15:30 10° NE
Cosmos 1656 Rocket 4.4 18:04:38 10° NNW 18:09:47 35° NE 18:14:10 13° ESE
Aureole 3 Rocket 4.0 18:05:07 10° SSE 18:10:20 35° E 18:14:15 10° NNE
Helios 1B rocket 3.2 18:10:37 10° S 18:14:21 52° W 18:18:07 10° NNW
CZ-4 R/B 1.8 18:10:57 10° SE 18:14:33 38° ENE 18:18:13 10° N
GRACE-FO 1 4.4 18:11:13 10° S 18:14:42 69° E 18:18:13 10° N
GRACE-FO 2 4.4 18:11:39 10° S 18:15:08 70° E 18:18:39 10° N
Cosmos 2369 Rocket 3.2 18:11:02 10° N 18:16:02 30° NE 18:19:41 16° ESE
DMSP B5D1-3 4.4 18:11:27 10° NNE 18:16:33 78° ESE 18:21:38 10° S
Cosmos 1464 Rocket 4.0 18:10:43 10° S 18:17:02 78° E 18:23:25 10° N
TRACE 4.4 18:15:20 10° NNE 18:18:42 85° WNW 18:22:02 10° SSW
Meteor 1-23 Rocket 4.5 18:13:34 10° N 18:19:03 48° ENE 18:24:33 10° SSE
ARIANE 6 FM1 Upper Stage 3.8 18:15:48 10° S 18:19:13 24° ESE 18:21:46 14° ENE
NOSS 3-4 (A) 4.2 18:16:01 10° NNW 18:22:36 50° NE 18:28:32 17° ESE
NOSS 3-4 (C) 4.2 18:16:07 10° NNW 18:22:41 50° NE 18:28:35 17° ESE
CZ-4B R/B 3.2 18:20:25 10° SE 18:24:16 47° ENE 18:28:18 10° N
Cosmos 1805 Rocket 3.6 18:23:38 10° S 18:27:50 53° E 18:32:05 10° NNE
Meteor 1-13 Rocket 4.3 18:22:35 10° N 18:28:25 89° W 18:34:05 10° S
Cosmos 1441 Rocket 3.9 18:29:41 24° ESE 18:30:37 27° E 18:33:40 10° NE
Cosmos 2228 Rocket 4.3 18:27:40 10° NNE 18:31:26 25° ENE 18:32:38 22° E
Cosmos 2084 Rocket 3.8 18:29:02 10° SSW 18:33:07 42° ESE 18:37:01 11° NE
Resurs 01 Rocket 1.9 18:30:24 16° SE 18:33:39 45° ENE 18:37:52 10° N
Cosmos 1975 3.2 18:30:10 10° SSE 18:33:44 36° E 18:37:20 10° NNE
Okean-O 4.1 18:39:41 18° ENE 18:39:55 18° ENE 18:42:56 10° NNE
Cosmos 2034 Rocket 3.9 18:38:03 10° S 18:44:13 84° E 18:50:25 10° N
Meteor PRIRODA 3.8 18:42:33 10° S 18:45:47 60° WSW 18:49:02 10° NNW
Cosmos 1707 Rocket 4.3 18:43:25 10° N 18:47:23 31° ENE 18:47:58 30° E
USA 306 4.2 18:44:56 10° NW 18:47:37 21° NNE 18:48:52 18° NE
ISS -1.9 18:44:52 10° WNW 18:47:43 25° N 18:49:13 18° NE
Cosmos 1666 Rocket 4.3 18:51:16 30° ENE 18:51:16 30° ENE 18:54:40 10° NNE
ACS3 Solar Sail 2.1 18:48:36 20° SE 18:52:51 51° ENE 18:59:01 10° N
SL-16 R/B 2.1 18:48:40 10° SSW 18:54:21 89° ESE 19:00:03 10° NNE
Meteor 2-12 Rocket 4.5 18:48:52 10° N 18:54:59 58° ENE 18:59:03 21° SSE
Cosmos 1805 3.6 18:53:19 10° SSW 18:56:56 61° W 19:00:33 10° N
Cosmos 1315 Rocket 4.1 18:54:32 10° NNW 18:58:18 41° W 19:02:00 10° SSW
Cosmos 1943 3.6 19:02:11 10° S 19:07:44 37° E 19:12:29 10° NE
ATLAS CENTAUR R/B 4.2 19:07:08 10° NW 19:08:24 11° NNW 19:09:41 10° NNW
Okean 3 3.9 19:04:56 10° N 19:08:31 41° ENE 19:08:31 41° ENE
Cosmos 783 Rocket 4.4 19:04:58 10° SSW 19:10:15 88° ESE 19:15:32 10° NNE
SL-14 R/B 3.7 19:06:53 10° NNW 19:10:39 60° W 19:12:47 24° SSW
SL-24 R/B 4.5 19:09:52 46° ESE 19:10:44 52° E 19:15:27 10° N
CSL-04 Rocket 3.5 19:11:58 25° SSE 19:15:07 89° WSW 19:20:27 10° NNW
Meteor 1-21 4.2 19:10:07 10° N 19:15:56 88° W 19:19:45 23° S
CZ-4B R/B 3.2 19:13:15 21° S 19:16:58 79° WSW 19:22:20 10° NNW
Cosmos 2263 4.2 19:14:31 10° NNW 19:20:12 64° ENE 19:21:31 49° ESE
USA 186 3.2 19:24:41 32° SW 19:25:17 36° W 19:28:18 10° NNW
Okean O Rocket 1.8 19:41:03 64° SW 19:41:22 67° WSW 19:45:47 10° NNW
GEOS 3 Rocket 3.4 19:41:58 74° SE 19:42:28 86° NE 19:47:40 10° NW
Cosmos 2266 Rocket 4.3 19:36:52 10° N 19:42:48 47° ENE 19:42:48 47° ENE
Tiangong 0.7 19:40:35 10° WSW 19:41:06 14° WSW 19:41:06 14° WSW
Gbstr 26 Del rocket 4.5 19:41:12 10° SSW 19:48:34 52° SE 19:48:34 52° SE
CZ-4 R/B 4.0 19:46:35 10° SW 19:49:13 17° W 19:51:52 10° NW
SPOT 5 3.2 19:54:01 51° N 19:54:01 51° N 19:57:18 10° NNW
ARIANE 6 FM1 Upper Stage 3.7 19:54:11 10° WSW 19:58:11 46° NW 19:58:11 46° NW
Terra 3.1 20:00:58 32° NNE 20:00:58 32° NNE 20:03:41 10° N
Cosmos 2369 Rocket 2.9 19:54:47 10° NW 20:00:16 49° WSW 20:01:28 42° SW
BREEZE-M DEB (TANK) 3.6 19:46:49 10° WNW 20:02:40 69° N 20:03:29 61° NE
Aureole 3 4.3 20:00:06 10° N 20:03:54 60° N 20:03:54 60° N
Cosmos 1633 Rocket 4.2 20:09:43 41° NW 20:09:43 41° NW 20:13:07 10° N
Resurs 01 Rocket 4.1 20:07:53 13° SW 20:10:17 19° W 20:13:25 10° NW
MetOp-B 4.3 20:11:40 69° WNW 20:11:40 69° WNW 20:16:37 10° NNW
Okean-O 3.9 20:17:08 38° NW 20:17:08 38° NW 20:20:12 10° NNW
MOS 1 Rocket 4.0 20:20:11 59° NW 20:20:11 59° NW 20:24:45 10° NNW
ERS-1 Rocket 3.9 20:26:14 43° NNW 20:26:14 43° NNW 20:29:38 10° NNW
ISS -0.3 20:21:49 10° NW 20:22:09 12° NW 20:22:09 12° NW
ACS3 Solar Sail 3.4 20:33:50 20° SW 20:37:05 30° W 20:42:37 10° NNW
ATLAS 2AS CENTAUR R/B 3.8 20:58:38 10° NNW 21:03:49 35° NNE 21:03:49 35° NNE
USA 267 4.2 21:18:35 39° N 21:18:35 39° N 21:24:09 10° NW
Cosmos 2344 4.4 22:08:55 10° NW 22:15:07 56° WNW 22:15:07 56° WNW
